CZ-6A DEB, 61467

Orbit data source: Space-Track

CZ-6A DEB, 61467 is space debris in LEO originally from a launch on Tue, 06 Aug 2024 UTC launched from the Taiyaun Space Center, China (TSC). Debris objects in space refer to the collection of defunct objects orbiting the Earth. Examples of debris include non-operational satellites, rocket bodies, and fragments generated from explosions, collisions, or faulty payload assembly.

Loading next visibility...
Identifier
61467, 2024-140ZZ
Orbit
LEO
Country
Flag of CNCN / PRC
Related business
Manufacturer
SAST
Mission
Spacecraft
Bus & Motor
Unknown
Mass
Unknown
Launch date (UTC)
2024-08-06 (2 years ago)
Launch vehicle
Unknown
Launch site
Taiyaun Space Center, China (TSC)
Object type
Payload
Rocket body
Debris
Shape & HBR
Unknown shape, 0.1 m
Radar Cross Section
Medium (>0.1 m² and <1 m²)

Expand to show TLE details & history
Last TLE update: 13 hours ago

TLE from 13 hours ago
0 CZ-6A DEB
1 61467U 24140ZZ  26171.29701700  .00000434  00000-0  11486-3 0  9992
2 61467  88.8671 259.8772 0081838 227.8355 131.5879 14.45046107 94609
Epoch: 2026-06-20T07:07Z
TLE epoch observation values (Epoch: 2026-06-20T07:07:42.268Z)
Latitude
-0.00006°
Longitude
-115.56258°
Altitude
783.913 km
Speed
7.441 km/s
True Right ascension
17h 19m 30s
True Declination
0° 00' 00"
Sunlit
Object was in full shadow at epoch
Visualization orbit readout
Latitude
Unknown
Longitude
Unknown
Altitude
Unknown
Speed
Unknown
Apparent Right ascension
Unknown
Apparent Declination
Unknown
Sunlit
N/A
Visualization observer readout
Local Sidereal Time
07:20:48
Azimuth
Unknown
Elevation
Unknown
Doppler factor
Unknown
Orbital elements
Apogee altitude
797.034 km
Perigee altitude
680.547 km
Semi-major axis
7,116.928 km
Eccentricity
0.00818
Inclination
88.8671°
RAAN
259.8772°
Arg. of periapsis
227.8355°
True anomaly
132.28456°
Mean anomaly
131.5879°
Eccentric anomaly
131.9367°
Mean motion
3.61497 °/min
Orbital period
99.59 mins
BSTAR
0.00011486
Loading maneuver chart data...
Computing Atmospheric mass density...
Loading historical data...
Loading historical data...
Loading historical data...
Loading historical data...
Loading historical data...
Loading historical data...
Loading historical data...

Documentation

Showing up to 5 results
|